User: anonymous   Login
Location: Passau
(48.5721°N, 13.4363°E)
Time: 00:42:56
(UTC+02:00)
Language:

ISS - Orbit

View from above orbital plane
View from above orbital plane
View from above satellite
View from above satellite

Ground track
Ground track

The orbit data is extracted from the following two-line orbital elements,

1 25544U 98067A   18114.50826423  .00016717  00000-0  10270-3 0  9046
2 25544  51.6370 286.3110 0002702  10.8796 349.2415 15.54149836 30161
Epoch (UTC): 24 April 2018 12:11:54
Eccentricity: 0.0002702
inclination: 51.6370°
perigee height: 403 km
apogee height: 406 km
right ascension of ascending node: 286.3110°
argument of perigee: 10.8796°
revolutions per day: 15.54149836
mean anomaly at epoch: 349.2415°
orbit number at epoch: 3016

The dashed part of the orbit path shows where the satellite is in the earth's shadow,  

DLR